Starlink 32164

operational
NORAD ID: 60271 Int'l Des: 2024-131 Owner: SPXS Country: US Constellation: starlink
LEOCIRCULAR

Starlink 32164について

説明を読み込み中...

リアルタイム位置

3D地球を読み込み中...

次回通過

高度履歴

Altitude vs Time

uPlot chart will show altitude changes over time

軌道要素

1 60271U 24131S 25304.69250911 -.00003615 00000-0 -11009-3 0 9995
2 60271 53.1612 291.9586 0001983 87.3842 272.7385 15.30168062 71867
Epoch: Oct 31, 2025 • Age: 26 hours

現在のステータス

高度 478.6 km
速度 7.63 km/s
衛星直下点 43.93°N, 106.49°E
打ち上げ日 Jul 27, 2024
運用期間 1.2 years
タイプ internet

技術仕様

分類 Payload
質量 730.00 kg
乾燥質量 700.00 kg
総質量 730.00 kg
長さ 0.30 m
直径 4.10 m
スパン 29.00 m
形状 Box + pan
製造者 SPXS
バスタイプ Starlink V2M
フェーズステータス In Orbit
所有者/国 SPXS/US

大規模コンステレーション

Loading constellations...